User: anonymous   Login
Location: Altleiningen
(49.5078°N, 8.0741°E)
Time: 13:43:58
(UTC+00:00)
Language:

Gbstr 26 Del rocket - Orbit

View from above orbital plane
View from above orbital plane
View from above satellite
View from above satellite

Ground track
Ground track

The orbit data is extracted from the following two-line orbital elements,

1 25876U 99041E   21127.21139747 -.00000122  00000-0  19042-4 0  9994
2 25876  51.7649 112.1211 0530772 208.3720 148.7340 14.04568121114147
Epoch (UTC): 07 May 2021 05:04:24
Eccentricity: 0.0530772
inclination: 51.7649°
perigee height: 493 km
apogee height: 1263 km
right ascension of ascending node: 112.1211°
argument of perigee: 208.3720°
revolutions per day: 14.04568121
mean anomaly at epoch: 148.7340°
orbit number at epoch: 11414

The dashed part of the orbit path shows where the satellite is in the earth's shadow,  

DLR